Tucson, AZ

10:18 PM MST on July 26, 2017 (GMT -0700)
Tucson International

Weather History for KTUS - July, 2012

Change the Weather History Date:

Friday, July 13, 2012

  Actual Average Record
Temperature  
Mean Temperature 83 °F 88 °F  
Max Temperature 93 °F 100 °F 110 °F (1987)
Min Temperature 72 °F 75 °F 62 °F (1936)
Degree Days  
Heating Degree Days 0 0  
Month to date heating degree days 0 0  
Since 1 June heating degree days 0 0  
Since 1 July heating degree days 0 0  
Cooling Degree Days 18 22  
Month to date cooling degree days 299 298  
Year to date cooling degree days 1668 1394  
Since 1 June cooling degree days 991 892  
Growing Degree Days 33 (Base 50)    
Moisture  
Dew Point 64 °F    
Average Humidity 53    
Maximum Humidity 69    
Minimum Humidity 36    
Precipitation  
Precipitation 0.02 in 0.07 in 0.62 in (1912)
Month to date precipitation 1.01 0.67  
Year to date precipitation 2.03 3.94  
Snow  
Snow 0.00 in - - ()
Month to date snowfall 0.0  
Snow Depth 0.00 in    
Sea Level Pressure  
Sea Level Pressure 29.89 in    
Wind  
Wind Speed 7 mph (SSW)    
Max Wind Speed 20 mph    
Max Gust Speed 26 mph    
Visibility 10 miles    
Events Rain    
T = Trace of Precipitation, MM = Missing Value Source: NWS Daily Summary

Daily Weather History Graph

Daily Weather History Graph

Search for Another Location

Airport or City:

Trip Planner

Search our weather history database for the weather conditions in past years. The results will help you decide how hot, cold, wet, or windy it might be!

Date:

Astronomy

Jul. 13, 2012 Rise Set
Actual Time 5:27 AM MST 7:31 PM MST
Civil Twilight 4:59 AM MST 7:59 PM MST
Nautical Twilight 4:25 AM MST 8:33 PM MST
Astronomical Twilight 3:49 AM MST 9:09 PM MST
Moon 1:02 AM MST (7/13) 3:06 PM MST (7/13)
Length of Visible Light 14h 59m
Length of Day
14h 04m
Waning Crescent, 25% of the Moon is Illuminated
Jul 13
Waning Crescent
Jul 18
New
Jul 26
First Quarter
Aug 1
Full
Aug 9
Last Quarter

Hourly Weather History & Observations

Time (MST) Temp. Heat Index Dew Point Humidity Pressure Visibility Wind Dir Wind Speed Gust Speed Precip Events Conditions
12:15 AM 78.8 °F - 71.6 °F 78% 30.02 in 10.0 mi SSW 11.5 mph - N/A   Mostly Cloudy
12:53 AM 78.1 °F - 64.0 °F 62% 29.86 in 10.0 mi SSW 10.4 mph - N/A   Clear
1:53 AM 75.9 °F - 63.0 °F 64% 29.87 in 10.0 mi South 9.2 mph - N/A   Mostly Cloudy
2:53 AM 75.0 °F - 63.0 °F 66% 29.87 in 10.0 mi South 11.5 mph - N/A   Partly Cloudy
3:53 AM 72.0 °F - 66.9 °F 84% 29.88 in 10.0 mi SSE 10.4 mph - 0.01 in Rain Light Rain
4:53 AM 75.0 °F - 63.0 °F 66% 29.87 in 10.0 mi SE 8.1 mph - 0.00 in   Partly Cloudy
5:53 AM 75.9 °F - 64.9 °F 69% 29.88 in 10.0 mi ESE 4.6 mph - N/A   Scattered Clouds
6:53 AM 75.0 °F - 68.0 °F 79% 29.90 in 10.0 mi South 4.6 mph - 0.01 in Rain Light Rain
7:53 AM 75.9 °F - 66.9 °F 74% 29.92 in 10.0 mi South 8.1 mph - 0.00 in   Scattered Clouds
8:53 AM 82.0 °F 84.1 °F 66.0 °F 58% 29.92 in 10.0 mi South 12.7 mph - N/A   Partly Cloudy
9:53 AM 84.0 °F 85.8 °F 64.9 °F 53% 29.93 in 10.0 mi SW 5.8 mph - N/A   Partly Cloudy
10:53 AM 87.1 °F 88.3 °F 64.0 °F 46% 29.91 in 10.0 mi Variable 3.5 mph - N/A   Clear
11:53 AM 87.1 °F 87.8 °F 63.0 °F 44% 29.89 in 10.0 mi West 5.8 mph - N/A   Scattered Clouds
12:53 PM 91.0 °F 90.9 °F 61.0 °F 36% 29.87 in 10.0 mi West 9.2 mph - N/A   Scattered Clouds
1:53 PM 91.0 °F 91.9 °F 63.0 °F 39% 29.86 in 10.0 mi South 17.3 mph 23.0 mph N/A   Mostly Cloudy
2:53 PM 89.1 °F 89.3 °F 62.1 °F 40% 29.86 in 10.0 mi SSW 6.9 mph - N/A   Clear
3:53 PM 89.1 °F 88.8 °F 60.1 °F 38% 29.83 in 10.0 mi WNW 3.5 mph - N/A   Clear
4:53 PM 89.1 °F 88.8 °F 60.1 °F 38% 29.85 in 10.0 mi NW 5.8 mph - N/A   Scattered Clouds
5:53 PM 84.0 °F 85.8 °F 64.9 °F 53% 29.85 in 10.0 mi SW 8.1 mph - 0.00 in   Partly Cloudy
6:53 PM 82.9 °F 84.6 °F 64.9 °F 54% 29.87 in 10.0 mi WSW 4.6 mph - N/A   Partly Cloudy
7:53 PM 82.4 °F 83.9 °F 64.4 °F 54% 30.01 in 10.0 mi East 3.5 mph - N/A   Clear
8:53 PM 82.9 °F 84.4 °F 64.0 °F 53% 29.87 in 10.0 mi ESE 4.6 mph - N/A   Clear
9:53 PM 82.0 °F 83.8 °F 64.9 °F 56% 29.89 in 10.0 mi South 3.5 mph - N/A   Clear
10:53 PM 81.0 °F 83.0 °F 66.0 °F 60% 29.89 in 10.0 mi SSW 3.5 mph - N/A   Clear
11:53 PM 81.0 °F 83.0 °F 66.0 °F 60% 29.89 in 10.0 mi SE 3.5 mph - N/A   Clear